This demonstration page uses our WeatherBlox Daily Observations layout. Learn more.

Left ArrowRight Arrow

38.88101, -77.10428

Hourly Observations for January 21, 2021

Temp ( °F °C ) Dew Point ( °F °C ) Humidity (%) Winds ( mph kmh ) Pressure ( in mb ) Visibility ( mi km ) Precip ( " mm )
12:52 am 00:52 Mostly Clear 29 -1.7 19 -7.2 66 66 SW 3 6 30.06 1018 10 16 0.00 0.00
1:52 am 01:52 Partly Cloudy 29 -1.7 19 -7.2 66 66 SSW 5 7 30.06 1018 10 16 0.00 0.00
2:52 am 02:52 Clear 29 -1.7 19 -7.2 66 66 SSE 5 7 30.03 1017 10 16 0.00 0.00
3:52 am 03:52 Partly Cloudy 27 -2.8 21 -6.1 78 78 SSW 5 7 29.98 1015 10 16 0.00 0.00
4:52 am 04:52 Cloudy 30 -1.1 21 -6.1 69 69 S 6 9 29.94 1014 10 16 0.00 0.00
5:52 am 05:52 Cloudy 31 -0.6 19 -7.2 61 61 SSW 7 11 29.94 1014 10 16 0.00 0.00
6:52 am 06:52 Cloudy 32 0 20 -6.7 61 61 SSW 6 9 29.93 1013 10 16 0.00 0.00
7:52 am 07:52 Mostly Cloudy 33 0.6 23 -5 66 66 S 7 11 29.88 1012 10 16 0.00 0.00
8:52 am 08:52 Partly Cloudy 35 1.7 25 -3.9 67 67 S 12 19 29.86 1011 10 16 0.00 0.00
9:52 am 09:52 Mostly Sunny 38 3.3 23 -5 55 55 SSW 10 17 29.85 1011 10 16 0.00 0.00
10:52 am 10:52 Partly Cloudy 43 6.1 23 -5 45 45 SSW 8 13 29.82 1010 10 16 0.00 0.00
11:52 am 11:52 Partly Cloudy 45 7.2 26 -3.3 48 48 S 9 15 29.77 1008 10 16 0.00 0.00
12:52 pm 12:52 Mostly Sunny 49 9.4 28 -2.2 44 44 SSE 9 15 29.73 1007 10 16 0.00 0.00
1:52 pm 13:52 Mostly Sunny 50 10 28 -2.2 43 43 SSE 13 20 29.69 1006 10 16 0.00 0.00
2:52 pm 14:52 Mostly Sunny 52 11.1 25 -3.9 35 35 SSW 8 13 29.68 1005 10 16 0.00 0.00
3:28 pm 15:28 Mostly Sunny 55 12.8 24 -4.4 30 30 SW 13 20 29.67 1005 10 16 0.00 0.00
3:52 pm 15:52 Mostly Sunny 54 12.2 25 -3.9 33 33 WSW 14 22 29.66 1004 10 16 0.00 0.00
4:52 pm 16:52 Mostly Sunny 53 11.7 24 -4.4 32 32 WSW 10 17 29.66 1004 10 16 0.00 0.00
5:52 pm 17:52 Mostly Clear 50 10 24 -4.4 36 36 W 5 7 29.67 1005 10 16 0.00 0.00
6:52 pm 18:52 Mostly Clear 48 8.9 24 -4.4 39 39 W 6 9 29.68 1005 10 16 0.00 0.00
7:52 pm 19:52 Clear 47 8.3 26 -3.3 44 44 W 6 9 29.69 1005 10 16 0.00 0.00
8:52 pm 20:52 Clear 45 7.2 25 -3.9 46 46 W 6 9 29.70 1006 10 16 0.00 0.00
9:52 pm 21:52 Clear 42 5.6 30 -1.1 62 62 Calm 29.71 1006 10 16 0.00 0.00
10:52 pm 22:52 Clear 40 4.4 31 -0.6 70 70 S 5 7 29.72 1006 10 16 0.00 0.00
11:52 pm 23:52 Clear 38 3.3 28 -2.2 68 68 SSW 7 11 29.73 1007 10 16 0.00 0.00

Powered by AerisWeather